Location: Cossonay
(46.5833°N, 6.4167°E)
Time: 04:35:34
(UTC+00:00)

SL-4 R/B - Pass Details

Date: 07 June 2020
Orbit: 428 x 666 km, 51.6° (Epoch: 04 July)

Event Time Altitude Azimuth Distance (km) Brightness Sun altitude
Rises 02:47:27 0° 291° (WNW) 2,999 5.5 -7.9°
Reaches altitude 10° 02:50:14 10° 277° (W) 2,067 4.6 -7.6°
Maximum altitude 02:53:54 22° 227° (SW) 1,391 3.5 -7.2°
Drops below altitude 10° 02:57:26 10° 176° (S) 1,984 4.5 -6.7°
Sets 03:00:04 0° 162° (SSE) 2,845 5.4 -6.4°
